Regional Weather Roundup
Issued by NWS

Home | Current Version | Previous Version | Graphics & Text | Print | Product List | Glossary On
Versions: 1 2 3 4 5 6 7 8 9 10 11 12 13 14 15
000
ASUS45 KTFX 161810
RWRMT
MONTANA REGIONAL WEATHER ROUNDUP
NATIONAL WEATHER SERVICE GREAT FALLS MT
1100 AM MST MON JAN 16 2017

NOTE: "FAIR" INDICATES FEW OR NO CLOUDS BELOW 12000 FEET WITH NO
SIGNIFICANT WEATHER AND/OR OBSTRUCTIONS TO VISIBILITY.

MTZ001>007-043-161900-
WEST OF THE DIVIDE

CITY           SKY/WX    TMP DP  RH WIND       PRES   REMARKS
KALISPELL      CLOUDY    11   7  84 N3        30.40R FOG
MISSOULA       MOSUNNY    0   0 100 CALM      30.42S
BUTTE          CLOUDY     2  -4  76 E3        30.22S HAZE
MULLAN PASS    MOSUNNY   22  15  75 NW3       30.19R
ANACONDA         N/A     12   0  57 CALM      30.24S
DEER LODGE       N/A      3  -6  66 CALM      30.31R
EUREKA           N/A     10   3  72 S5        30.40F
HAMILTON         N/A      0  -6  78 W5        30.36S
RONAN            N/A      4  -1  79 MISG      30.36R VSB 0
$$

MTZ008-052>055-161900-
SOUTHWEST MONTANA

CITY           SKY/WX    TMP DP  RH WIND       PRES   REMARKS
BOZEMAN        CLOUDY     2  -2  83 CALM      30.24R
DILLON         CLOUDY    19  -2  39 S8        30.23R WCI   9
W YELLOWSTONE  CLOUDY    -4  -9  77 NE3       30.24F
ENNIS          SUNNY      9   0  66 NW3       30.26S
TWIN BRIDGES     N/A      8  -6  52 SE5       30.21R
$$

MTZ009-010-012-014-046-048-049-054-161900-
EAST SLOPES AND CENTRAL MONTANA

CITY           SKY/WX    TMP DP  RH WIND       PRES   REMARKS
CUT BANK       SUNNY     29  17  61 SW8       30.02S WCI  21
GREAT FALLS    CLOUDY    28  14  55 S17       30.09F WCI  16
MALMSTROM AFB  CLOUDY    28  17  65 SW18      30.10S WCI  15
HELENA         CLOUDY    -4  -8  83 CALM      30.28R
AUGUSTA          N/A     21  14  72 S7        30.05S WCI  13
BOWMANS CRNR     N/A     22  11  65 S22       30.07R WCI   6
CHOTEAU          N/A     30  18  59 SW7       30.06S WCI  23
CONRAD           N/A     19  13  77 S5        30.05S
FAIRFIELD        N/A     24  13  62 S22       30.05S WCI   9
POWER            N/A     21  13  68 S14       30.06F WCI   8
RAYNESFORD       N/A     33  13  43 SW16      30.08S WCI  23
ULM              N/A     28  17  63 MISG      30.11S
$$

MTZ011-013-016-021-045-047-050-051-161900-
NORTH CENTRAL MONTANA

CITY           SKY/WX    TMP DP  RH WIND       PRES   REMARKS
HAVRE          CLOUDY    17   8  67 W6        30.12R WCI   9
LEWISTOWN      CLOUDY    21  10  62 E6        30.09S WCI  13
N BAR RANCH      N/A     27  12  54 W3        30.09F
CHINOOK          N/A     10   1  67 CALM      30.13S
DENTON           N/A     15   7  71 SW10G20   30.07S WCI   2
FORT BENTON      N/A     19   7  58 MISG      30.12F
GEYSER           N/A     27  14  58 SW10      30.07F WCI  17
GRASS RANGE      N/A     33  16  49 W13       30.06S WCI  24
JUDITH GAP       N/A     25  11  54 SW12      30.07F WCI  14
ROY              N/A     29  17  58 MISG      30.07F
STANFORD         N/A     27  14  58 CALM      30.06F
WINIFRED         N/A     31  16  54 W7        30.08S WCI  24
$$

MTZ017>020-022>027-061-062-161900-
NORTHEAST MONTANA

CITY           SKY/WX    TMP DP  RH WIND       PRES   REMARKS
GLASGOW        SUNNY     13   5  70 W7        30.14S WCI   3
JORDAN           N/A     20  10  65 W7        30.13S WCI  11
SIDNEY         CLOUDY    11   5  77 S8        30.15F WCI  -1
WOLF POINT     CLOUDY    12   5  73 W9        30.16F WCI   0
PLENTYWOOD       N/A     16  12  86 NE3       30.11S
POPLAR           N/A      9   3  78 W6        30.16F WCI  -1
SCOBEY           N/A     21  11  65 CALM      30.08S
$$

MTZ028>42-056>058-161900-
SOUTHCENTRAL AND SOUTHEAST MONTANA

CITY           SKY/WX    TMP DP  RH WIND       PRES   REMARKS
BAKER          CLOUDY    16   8  71 W14       30.12F WCI   2
BILLINGS       SUNNY     21   6  52 SW22      30.16S WCI   5
LIVINGSTON     CLOUDY    24   9  52 W23G31    30.15R WCI   9
MILES CITY     CLOUDY    10   2  69 S6        30.17S WCI   0
BIG TIMBER     SUNNY     28  10  47 W26       30.13S WCI  13
EKALAKA          N/A     23   6  48 W9        30.07F WCI  13
FORSYTH          N/A     12   5  73 W6        30.16F WCI   3
HARLOWTON        N/A     30  14  52 W23       30.10S WCI  17
LAUREL           N/A     12  -1  56 SW10      30.12F WCI  -1
$$

REGIONAL REPORTS...DAKOTAS

CITY           SKY/WX    TMP DP  RH WIND       PRES   REMARKS
WILLISTON      CLOUDY    14   7  73 SW6       30.13F WCI   5
MINOT          SUNNY     25  18  74 NW9       30.06S WCI  15
DICKINSON      SUNNY     18  11  74 W13       30.06F WCI   5
BEACH            N/A     18  12  79 W12       30.13F WCI   5
CROSBY           N/A     21  16  79 SW9       30.11F WCI  11
TIOGA            N/A     14  14 100 W7        30.10F WCI   4
WATFORD CITY     N/A     12   7  79 SW7       30.13F WCI   2
BISMARCK       CLOUDY    15   5  64 W6        30.10F WCI   6
GRAND FORKS    CLOUDY    15   8  73 SW7       30.06F WCI   5
FARGO          CLOUDY    16  10  77 SW5       30.09F
BUFFALO SD       N/A     19   9  65 NW8       30.03S WCI   9
RAPID CITY     SUNNY     34  17  50 N9        30.08F WCI  27
$$

REGIONAL REPORTS...WYOMING/IDAHO/WASHINGTON

CITY           SKY/WX    TMP DP  RH WIND       PRES   REMARKS
GILLETTE       SUNNY     30  13  49 W10       30.13F WCI  21
SHERIDAN       CLOUDY    24   8  50 S6        30.15F WCI  17
BUFFALO WY     CLOUDY    28   6  39 S3        30.13F
CODY           CLOUDY    27   6  41 CALM      30.16F
YELLOWSTONE LA   N/A     -5  -9  83 CALM      30.20S
IDAHO FALLS    CLOUDY    -3  -7  82 N5        30.36S
SALMON         CLOUDY   -15 -15 100 CALM      30.56F
BOISE          SUNNY     10   3  73 CALM      30.51R
SPOKANE        SNOW       6   3  87 W3        30.37S VSB 1/2
$$

REGIONAL REPORTS...ALBERTA

CITY           SKY/WX    TMP DP  RH WIND       PRES   REMARKS
EDMONTON       PTSUNNY   28  12  50 SW13      29.78F WCI  18
CALGARY        CLOUDY    30  16  55 S9        29.88F WCI  22
LETHBRIDGE     PTSUNNY   30  21  69 SW16      29.97S WCI  19
MEDICINE HAT   PTSUNNY   25  14  63 SW15      30.01F WCI  12
WATERTON GATE    N/A     32  14  47 SW32G51     N/A  WCI  17
CARDSTON         N/A     41  16  36 W9G17       N/A
MILK RIVER       N/A     27  14  59 SW13        N/A  WCI  16
ONEFOUR          N/A      9   3  78 E9          N/A  WCI  -5
$$

REGIONAL REPORTS...SASKATCHEWAN

CITY           SKY/WX    TMP DP  RH WIND       PRES   REMARKS
SWIFT CURRENT  SUNNY     32  23  69 S15       30.00F WCI  22
REGINA         MOSUNNY   18  14  86 SW5       30.07R
SASKATOON      PTSUNNY   23  16  74 SW14G21   29.99S WCI  11
CYPRESS HILLS    N/A     25  10  54 S9          N/A  WCI  15
VAL MARIE        N/A      7   1  78 E2          N/A
$$




USA.gov is the U.S. government's official web portal to all federal, state and local government web resources and services.